星链-5793 (STARLINK-5793 )

导读

STARLINK-5793是美国太空探索技术公司SpaceX星链星座中的卫星,于2023年3月24日发射升空,属于星链互联网卫星组网的一部分。星链项目旨在构建全球卫星互联网,STARLINK-5793承担着为全球偏远地区等提供低延迟宽带网络接入的任务,进一步推进了星链星座的组网部署进程。

基本信息
目录编号:
56038
目录名称:
STARLINK-5793
国际标识:
2023-042BE
轨道中心:
EARTH
卫星名称:
星链-5793
卫星全名:
星链-5793 (STARLINK-5793 )
卫星状态:
在轨 (已飞行1267 天)
发射日期:
2023-03-24 UTC
国别 :
美国 (US)
星等 :
--
该卫星已列入 空间交会检测服务 Space Conjunction Data Service (SCDS) ,当前飞行风险评估等级: 高风险
轨道信息
数据来源 国际轨道数据 AOE轨道数据
星历时间 2026-09-11T06:39:04+0800
18小时前
查看轨道信息
2026-09-05T11:00:00+0800
6天前
查看轨道信息
半长轴 6861.203km 6861.159km
偏心率 0.0000715 0.000124
轨道倾角 43.001° 43.002°
近地点辐角 244.869° 263.982°
升交点赤经 79.343° 112.208°
平近点角 115.209° 99.412°
近地点 482.575km 482.171km
远地点 483.557km 483.873km
周期 94.267分钟 94.266分钟
每日圈数 15.275744 15.275893
详细信息
固有亮度:
5
最大亮度:
2.5
卫星平台:
Starlink v1.5
覆盖范围:
全球
运营商:
太空探索技术公司
运营商所在国:
美国
制造商(研发单位):
太空探索技术公司
制造商所在国:
美国
使用方式:
暂无
卫星简介
星链(Starlink)计划是由太空探索技术公司(SpaceX)提出的一个巨型低轨卫星互联网星座项目,计划在2019年至2024年间在太空搭建由约1.2万颗卫星组成的“星链”网络,其中1584颗将部署在地球上空550千米处的近地轨道,并从2020年开始工作。该卫星仍在工作。
2D轨道图
3D轨道图
轨道高度分析图
轨道倾角分析图
轨道综合分析图
查看轨道综合分析图
与全量物体交会距离演化趋势
与全量物体交会风险概率演化趋势